Location: Ch�ze
(42.9000°N, 0.0333°W)
Time: 00:10:57
(UTC+00:00)

NOSS 2-1 (C) - Pass Details

Date: 24 January 2021
Orbit: 441 x 1761 km, 63.4° (Epoch: 21 February)

Event Time Altitude Azimuth Distance (km) Brightness Sun altitude
Rises 18:30:51 0° 221° (SW) 2,526 7.6 -16.1°
Reaches altitude 10° 18:33:01 10° 225° (SW) 1,588 6.5 -16.5°
Maximum altitude 18:36:23 65° 308° (NW) 490 3.2 -17.1°
Enters shadow 18:37:57 28° 22° (NNE) 862 4.0 -17.4°
